Regional Weather Roundup
Issued by NWS

Home | Current Version | Previous Version | Graphics & Text | Print | Product List | Glossary On
Versions: 1 2 3 4 5 6 7 8 9 10 11 12 13 14 15 16 17 18 19 20 21 22 23 24 25 26 27 28 29 30 31 32 33 34 35 36 37 38 39 40 41 42 43 44 45 46 47 48 49 50
000
ASUS43 KBIS 181110
RWRND

NORTH DAKOTA REGIONAL WEATHER ROUNDUP
NATIONAL WEATHER SERVICE BISMARCK ND
600 AM CDT FRI APR 18 2014

NOTE: "FAIR" INDICATES FEW OR NO CLOUDS BELOW 12,000 FEET WITH NO
SIGNIFICANT WEATHER AND/OR OBSTRUCTIONS TO VISIBILITY.


NDZ001>003-009>011-017-181200-
NORTHWEST NORTH DAKOTA

CITY           SKY/WX    TMP DP  RH WIND       PRES   REMARKS
WILLISTON      CLOUDY    37  24  59 SE10G18   29.91S
MINOT          MOCLDY    30  21  69 E14       30.07F WCI  19
MINOT AFB      MOCLDY    29  22  74 SE17      30.07F WCI  17
$$

NDZ018>021-031>035-040>046-181200-
SOUTHWEST NORTH DAKOTA

CITY           SKY/WX    TMP DP  RH WIND       PRES   REMARKS
BISMARCK       CLOUDY    35  22  58 E14G23    30.06F
DICKINSON      MOCLDY    31  22  69 SE17      29.88F WCI  19
GARRISON         N/A     32  23  69 E16       30.02F
HETTINGER ARPT CLEAR     29  23  78 E12       29.90S WCI  19
$$

NDZ004>008-012>016-024-026-027-054-181200-
NORTHEAST NORTH DAKOTA

CITY           SKY/WX    TMP DP  RH WIND       PRES   REMARKS
GRAND FORKS    CLOUDY    32  17  54 SE8       30.28S
GRND FRKS AFB  CLOUDY    30  20  66 SE7       30.28S
DEVILS LAKE    MOCLDY    30  16  55 SE13      30.19F
$$

NDZ022-023-025-028>030-036>039-047>053-181200-
SOUTHEAST NORTH DAKOTA

CITY           SKY/WX    TMP DP  RH WIND       PRES   REMARKS
FARGO          CLOUDY    35  22  58 SE7       30.27F
JAMESTOWN      MOCLDY    31  21  66 E14       30.17F
$$




USA.gov is the U.S. government's official web portal to all federal, state and local government web resources and services.